x

Islay/port Ellen (03105) Weather Station

9:00 - Mon 22nd Dec 2014 All times are GMT.

  • Wind
    18mph
  • Ar Temp 48°f
  • Sea Pressure 1005mb
  • Islay/port Ellen
  • Islay/port Ellen

More Historic Weather Station data

Upgrade to MSW Pro to gain access to the past 30 days of data for over 8000 Wavebouys and Weather Stations around the globe.

Join Pro

Comparision Forecast

View Surf forecast
   
Seg 12/22 9:00 18
mph
1005mb 48f
8:00 19
mph
1005mb 48f
7:00 18
mph
1005mb 48f
6:00 17
mph
1005mb 48f
5:00 17
mph
1004mb 48f
4:00 18
mph
1004mb 48f
3:00 21
mph
1004mb 47f
2:00 22 29 mph 1004mb 48f
1:00 19
mph
1004mb 48f
12:00 21
mph
1004mb 48f
11:00 21
mph
1004mb 48f
10:00 21 30 mph 1004mb 47f
9:00 21 30 mph 1004mb 47f
8:00 18
mph
1003mb 48f
7:00 18 29 mph 1003mb 49f
6:00 21
mph
1003mb 49f
5:00 21 32 mph 1003mb 47f
4:00 18 38 mph 1003mb 48f
3:00 17 29 mph 1003mb 49f
2:00 21 29 mph 1003mb 49f
1:00 19 30 mph 1004mb 50f
12:00 17 33 mph 1004mb 50f
Dom 12/21 11:00 22 32 mph 1005mb 51f
10:00 16
mph
1005mb 50f
9:00 19 31 mph 1005mb 51f
8:00 21 39 mph 1005mb 51f
7:00 24 37 mph 1006mb 51f
6:00 29 40 mph 1006mb 51f
5:00 30 40 mph 1006mb 51f
4:00 28 37 mph 1007mb 52f
3:00 21 33 mph 1007mb 51f
2:00 23 33 mph 1008mb 51f
1:00 21 33 mph 1009mb 51f
12:00 19 34 mph 1010mb 51f
11:00 21 30 mph 1011mb 50f
10:00 18 29 mph 1011mb 50f
9:00 23 31 mph 1012mb 49f
8:00 19 34 mph 1012mb 49f
7:00 25 37 mph 1013mb 49f
6:00 24 38 mph 1014mb 48f
5:00 22 33 mph 1016mb 48f
4:00 22 31 mph 1017mb 47f
3:00 19
mph
1018mb 46f
2:00 16
mph
1019mb 46f
1:00 17 29 mph 1020mb 46f
12:00 18 30 mph 1021mb 45f
Sáb 12/20 11:00 21 29 mph 1022mb 46f
10:00 19 30 mph 1022mb 46f
9:00 18
mph
1023mb 46f
8:00 18
mph
1023mb 46f
7:00 18 34 mph 1023mb 46f
6:00 21 29 mph 1023mb 46f
5:00 18
mph
1023mb 47f
4:00 17 29 mph 1023mb 46f
3:00 15
mph
1023mb 46f
2:00 19 31 mph 1022mb 47f
1:00 18
mph
1023mb 47f
12:00 21 31 mph 1022mb 46f
11:00 23 36 mph 1022mb 46f
10:00 26 37 mph 1021mb 46f
9:00 29 38 mph 1020mb 45f
8:00 26 46 mph 1019mb 45f
7:00 31 51 mph 1018mb 43f
6:00 32 44 mph 1017mb 45f
5:00 28 49 mph 1016mb 45f
4:00 31 44 mph 1015mb 46f
3:00 32 48 mph 1015mb 45f
2:00 32 53 mph 1014mb 46f
1:00 31 53 mph 1013mb 44f
12:00 34 61 mph 1013mb 44f
Sex 12/19 11:00 34 55 mph 1012mb 46f
10:00 36 56 mph 1012mb 45f
9:00 30 52 mph 1012mb 46f
8:00 30 47 mph 1012mb 44f
7:00 30 47 mph 1011mb 45f
6:00 37 53 mph 1010mb 42f
5:00 32 52 mph 1009mb 45f
4:00 29 52 mph 1009mb 44f
3:00 29 45 mph 1008mb 44f
2:00 34 53 mph 1008mb 42f
1:00 34 52 mph 1007mb 45f
12:00 34 46 mph 1006mb 45f
11:00 33 49 mph 1006mb 43f
10:00 28 51 mph 1005mb 41f
9:00 33 47 mph 1004mb 44f
8:00 29 54 mph 1003mb 42f
7:00 33 47 mph 1002mb 44f
6:00 33 57 mph 1001mb 41f
5:00 34 49 mph 1001mb 43f
4:00 33 60 mph 1000mb 43f
3:00 31 51 mph 1000mb 44f
2:00 29 54 mph 1000mb 43f
1:00 34 49 mph 1000mb 42f
12:00 29 49 mph 1000mb 44f
Qui 12/18 11:00 31 44 mph 1000mb 44f
10:00 26 40 mph 999mb 44f